Weather History for KTOI - September, 2013

Change the Weather History Date:

Sunday, September 29, 2013

  Actual Average Record
Temperature  
Mean Temperature 67 °F 71 °F  
Max Temperature 80 °F 83 °F 90 °F (2005)
Min Temperature 53 °F 59 °F 46 °F (2003)
Degree Days  
Heating Degree Days 0 1  
Month to date heating degree days 0 2  
Since 1 July heating degree days 0 2  
Cooling Degree Days 2 7  
Month to date cooling degree days 376 309  
Year to date cooling degree days 2023 1943  
Growing Degree Days 16 (Base 50)    
Moisture  
Dew Point 58 °F    
Average Humidity 71    
Maximum Humidity 93    
Minimum Humidity 48    
Precipitation  
Precipitation 0.00 in 0.12 in 3.40 in (1998)
Month to date precipitation 2.21 3.84  
Year to date precipitation 47.82 41.79  
Sea Level Pressure  
Sea Level Pressure 30.05 in    
Wind  
Wind Speed 3 mph (NE)    
Max Wind Speed 9 mph    
Max Gust Speed 14 mph    
Visibility 10 miles    
Events      
T = Trace of Precipitation, MM = Missing Value Source: NWS Daily Summary

Daily Weather History Graph

Daily Weather History Graph

Search for Another Location

Airport or City:

Trip Planner

Search our weather history database for the weather conditions in past years. The results will help you decide how hot, cold, wet, or windy it might be!

Date:

Astronomy

Sep. 29, 2013 Rise Set
Actual Time 6:36 AM CDT 6:31 PM CDT
Civil Twilight 6:12 AM CDT 6:55 PM CDT
Nautical Twilight 5:44 AM CDT 7:23 PM CDT
Astronomical Twilight 5:15 AM CDT 7:52 PM CDT
Moon 1:33 AM CDT (9/29) 3:12 PM CDT (9/29)
Length of Visible Light 12h 43m
Length of Day
11h 54m
Waning Crescent, 27% of the Moon is Illuminated
Sep 29
Waning Crescent
Oct 4
New
Oct 11
First Quarter
Oct 18
Full
Oct 26
Last Quarter

Hourly Weather History & Observations

Time (CDT) Temp. Dew Point Humidity Pressure Visibility Wind Dir Wind Speed Gust Speed Precip Events Conditions
12:53 AM 57.9 °F 55.0 °F 90% 30.10 in 10.0 mi Calm Calm - N/A   Clear
1:53 AM 59.0 °F 55.0 °F 87% 30.09 in 10.0 mi Calm Calm - N/A   Clear
2:53 AM 55.9 °F 54.0 °F 93% 30.09 in 10.0 mi Calm Calm - N/A   Clear
3:53 AM 55.0 °F 52.0 °F 89% 30.08 in 10.0 mi Calm Calm - N/A   Clear
4:53 AM 54.0 °F 51.1 °F 90% 30.07 in 10.0 mi ENE 3.5 mph - N/A   Clear
5:53 AM 55.9 °F 53.1 °F 90% 30.08 in 10.0 mi ENE 5.8 mph - N/A   Clear
6:53 AM 57.0 °F 53.1 °F 87% 30.09 in 10.0 mi NE 3.5 mph - N/A   Clear
7:53 AM 61.0 °F 55.9 °F 83% 30.11 in 10.0 mi Calm Calm - N/A   Clear
8:53 AM 66.0 °F 59.0 °F 78% 30.11 in 10.0 mi East 4.6 mph - N/A   Clear
9:53 AM 72.0 °F 60.1 °F 66% 30.11 in 10.0 mi ENE 4.6 mph - N/A   Clear
10:53 AM 75.0 °F 60.1 °F 60% 30.09 in 10.0 mi East 8.1 mph - N/A   Clear
11:53 AM 79.0 °F 59.0 °F 50% 30.08 in 10.0 mi Variable 3.5 mph - N/A   Scattered Clouds
12:53 PM 79.0 °F 57.9 °F 48% 30.06 in 10.0 mi NE 4.6 mph - N/A   Clear
1:53 PM 79.0 °F 57.9 °F 48% 30.03 in 10.0 mi NNE 4.6 mph - N/A   Clear
2:53 PM 79.0 °F 57.9 °F 48% 30.01 in 10.0 mi NNE 6.9 mph - N/A   Clear
3:53 PM 78.1 °F 57.9 °F 50% 30.00 in 10.0 mi NE 4.6 mph - N/A   Clear
4:53 PM 77.0 °F 57.0 °F 50% 30.00 in 10.0 mi ENE 4.6 mph - N/A   Clear
5:53 PM 73.9 °F 61.0 °F 64% 30.01 in 10.0 mi NE 3.5 mph - N/A   Clear
6:53 PM 69.1 °F 63.0 °F 81% 30.01 in 10.0 mi Calm Calm - N/A   Clear
7:53 PM 68.0 °F 63.0 °F 84% 30.02 in 10.0 mi Calm Calm - N/A   Clear
8:53 PM 66.9 °F 63.0 °F 87% 30.03 in 10.0 mi Calm Calm - N/A   Clear
9:53 PM 66.0 °F 63.0 °F 90% 30.03 in 10.0 mi Calm Calm - N/A   Clear
10:53 PM 66.9 °F 62.1 °F 84% 30.02 in 10.0 mi Calm Calm - N/A   Clear
11:53 PM 66.9 °F 62.1 °F 84% 30.00 in 10.0 mi Calm Calm - N/A   Clear